Notices

What's New in latest Release from April 7th, 2021:

- Updated Glossary, including Speed of Maximum Gust, and Total Hourly Precipitation

- Updated national and regional climate services offices contacts and prices information

- Addition of station inventory lists for 1981-2010, 1971-2000, and 1961-1990 Normals.

If you haven't already, please take our survey and provide feedback about our website: https://eccc.sondage-survey.ca/f/LanguageSelection.aspx?s=442ca660-fcf1-47c0-95a9-59707d6fd709

Hourly Data Report for October 10, 2017

VICTORIA UNIVERSITY CS
BRITISH COLUMBIA

48°27'25.200" N
123°18'16.600" W
60.10 m
1018598
71783
WYJ

Download Data

Hourly Data (October 2017)
Hourly Data Report for October 10, 2017
TIME
LST
Temp Definition
°C
Dew Point Definition
°C
Rel Hum Definition
%
Precip. Amount Definition
mm

Wind Dir Definition
10's deg

Wind Spd Definition
km/h
Visibility Definition
km
Stn Press Definition
kPa
Hmdx Definition


Wind Chill Definition


Weather Definition


00:00 6.0 5.3 96 0.0 31 1   100.62     LegendNANA
01:00 6.0 5.5 97 0.0 25 2   100.55     LegendNANA
02:00 6.0 5.5 97 0.0 23 2   100.46     LegendNANA
03:00 7.1 6.7 97 0.0 24 4   100.38     LegendNANA
04:00 7.3 6.1 92 0.0 25 5   100.30     LegendNANA
05:00 7.2 5.9 92 0.0 24 3   100.26     LegendNANA
06:00 7.2 5.8 90 0.0 26 3   100.23     LegendNANA
07:00 7.3 5.7 90 0.0 24 1   100.22     LegendNANA
08:00 9.9 7.8 87 0.0 24 9   100.23     LegendNANA
09:00 9.6 7.5 87 0.0 24 9   100.31     LegendNANA
10:00 10.4 7.9 84 0.0 25 8   100.38     LegendNANA
11:00 13.3 6.9 65 0.0 23 11   100.39     LegendNANA
12:00 13.7 4.8 55 0.0 25 16   100.41     LegendNANA
13:00 14.3 5.1 54 0.0 23 13   100.41     LegendNANA
14:00 14.4 3.3 47 0.0 24 10   100.42     LegendNANA
15:00 14.0 3.0 47 0.0 26 10   100.44     LegendNANA
16:00 11.8 2.3 52 0.0 25 12   100.45     LegendNANA
17:00 10.8 3.1 59 0.0 25 10   100.46     LegendNANA
18:00 9.7 4.2 69 0.0 25 10   100.48     LegendNANA
19:00 9.1 4.6 73 0.0 25 8   100.51     LegendNANA
20:00 8.5 4.9 78 0.0 25 6   100.52     LegendNANA
21:00 6.9 4.3 84 0.0 25 1   100.57     LegendNANA
22:00 7.6 4.8 82 0.0 25 5   100.57     LegendNANA
23:00 6.8 4.6 86 0.0 0 1   100.59     LegendNANA

Notes on Data Quality.

Legend

  • E = Estimated
  • M = Missing
  • NA = Not Available*
  • [empty] = Indicates an unobserved value
Date modified: